Weather in Usisha

Russia / Republic of Dagestan     42°15′01″N   47°23′28″E
temp.,
°C
wind,
m/s
gust,
m/s
humid.,
%
clouds,
%
prec.,
mm/h
press.,
hPa
HPBL,
m
29 january, sat
sat2900:00−11wsw32754 0.0 102518
03:00−11wsw32700 0.0 102517
06:00−11wsw32690 0.0 102517
09:00−7sw11570 0.0 102354
12:00−3ese11505 0.0 1019376
15:00−4e21655 0.0 1019252
18:00−9wsw22865 0.0 102313
21:00−9wsw32725 0.0 102419
30 january, sun
sun3000:00−9wsw32634 0.0 102420
03:00−9wsw33615 0.0 102320
06:00−10wsw32626 0.0 102317
09:00−5wsw225585 0.0 102042
12:00−2ese2248100 0.0 1017440
15:00−3ese2262100 0.0 1016294
18:00−8sw2284100 0.0 101812
21:00−8wsw227795 0.0 101716
31 january, mon
mon3100:00−8wsw32686 0.0 101616
03:00−8wsw33650 0.0 101520
06:00−8wsw33650 0.0 101422
09:00−5wsw33621 0.0 101368
12:000wnw12470 0.0 1010420
15:000n11510 0.0 1010365
18:00−5wsw22710 0.0 101412
21:00−6wsw32665 0.0 101625
1 february, tue
tue100:00−7wsw326349 0.0 101823
03:00−7sw326048 0.0 101817
06:00−8sw325734 0.0 101913
09:00−4ssw11535 0.0 101852
12:00−2ne215330 0.0 1017346
15:00−2ene216610 0.0 1017364
18:00−6sw22845 0.0 102014
21:00−6sw22711 0.0 102015
2 february, wed
wed200:00−6wsw32655 0.0 101917
03:00−5wsw326483 0.0 101818
06:00−5wsw326233 0.0 101917
09:00−1wsw32535 0.0 101735
12:00+4sw1141100 0.0 1013140
15:00+5wsw1148100 0.0 101217
18:00+1wsw3249100 0.0 101414
21:00+1wsw434299 0.0 101525